User: anonymous   Login
Location: Unspecified
(0.0000°N, 0.0000°E)
Time: 18:52:22
(UTC+00:00)
Language:

KAGAYAKI - Orbit

View from above orbital plane
View from above orbital plane
View from above satellite
View from above satellite

Ground track
Ground track

The orbit data is extracted from the following two-line orbital elements,

1 33495U 09002D   17145.64478954 +.00000018 +00000-0 +11255-4 0  9997
2 33495 098.3248 300.0260 0009445 097.5028 262.7252 14.72022084447094
Epoch (UTC): 25 May 2017 15:28:29
Eccentricity: 0.0009445
inclination: 98.3248°
perigee height: 648 km
apogee height: 661 km
right ascension of ascending node: 300.0260°
argument of perigee: 97.5028°
revolutions per day: 14.72022084
mean anomaly at epoch: 262.7252°
orbit number at epoch: 44709

The dashed part of the orbit path shows where the satellite is in the earth's shadow,  

DLR